Time,B instrument,Bx,By,Bz,sigma B,Ion instrument,Status,Tp_par,Tp_perp,carrot,r_sun,clat,clong,earth_he_angle,n_p,vp_x,vp_y,vp_z,vth_p_par,vth_p_perp
1980-02-18 00:17:21,-1,nan,nan,nan,nan,1,3,nan,nan,1692,0.98210043,0.25202256,318.6853,285.35327,nan,365.11,5.12673,4.34641,nan,nan
1980-02-18 00:38:57,-1,nan,nan,nan,nan,1,3,nan,nan,1692,0.9821139,0.25073683,318.48145,285.34863,nan,363.287,11.7337,6.44118,nan,nan
1980-02-18 01:00:33,-1,nan,nan,nan,nan,1,3,nan,nan,1692,0.98212808,0.24938995,318.28149,285.34399,nan,360.735,8.04231,7.81371,nan,nan
1980-02-18 01:22:09,-1,nan,nan,nan,nan,1,3,nan,nan,1692,0.98214209,0.24804306,318.07739,285.33911,nan,359.217,10.6217,4.15939,nan,nan
1980-02-18 01:43:45,-1,nan,nan,nan,nan,1,3,nan,nan,1692,0.9821555,0.24675739,317.87769,285.33472,nan,357.421,16.9609,2.87194,nan,nan
1980-02-18 02:05:21,-1,nan,nan,nan,nan,1,3,nan,nan,1692,0.98216951,0.24541056,317.67358,285.32983,nan,358.298,14.0769,0.681606,nan,nan
1980-02-18 02:26:57,-1,nan,nan,nan,nan,1,3,nan,nan,1692,0.9821828,0.24412501,317.46997,285.32544,nan,352.357,10.6596,2.3089,nan,nan
1980-02-18 02:48:33,-1,nan,nan,nan,nan,1,3,nan,nan,1692,0.98219669,0.24277824,317.27002,285.3208,nan,356.652,9.70956,3.01747,nan,nan
1980-02-18 03:10:09,-1,nan,nan,nan,nan,1,3,nan,nan,1692,0.98221058,0.24143153,317.06616,285.31616,nan,355.201,5.12504,5.32817,nan,nan
1980-02-18 03:53:21,-1,nan,nan,nan,nan,1,3,nan,nan,1692,0.98223764,0.23879921,316.66235,285.30688,nan,353.215,8.67813,12.7183,nan,nan
1980-02-18 04:14:57,-1,nan,nan,nan,nan,1,3,nan,nan,1692,0.98225075,0.23751378,316.4585,285.30225,nan,343.151,13.4141,0.0251032,nan,nan
1980-02-18 04:58:09,-1,nan,nan,nan,nan,1,3,nan,nan,1692,0.98227823,0.23482066,316.05469,285.29297,nan,356.745,24.1113,1.47084,nan,nan
1980-02-18 05:41:21,-1,nan,nan,nan,nan,1,3,nan,nan,1692,0.98230487,0.23218882,315.65088,285.28369,nan,341.942,16.7076,6.11875,nan,nan
1980-02-18 06:02:57,-1,nan,nan,nan,nan,1,3,nan,nan,1692,0.98231786,0.23090351,315.45117,285.2793,nan,348.095,16.6429,6.61854,nan,nan
1980-02-18 06:24:33,-1,nan,nan,nan,nan,1,3,nan,nan,1692,0.9823314,0.22955704,315.24707,285.27441,nan,354.528,13.8958,5.84041,nan,nan
1980-02-18 06:46:09,-1,nan,nan,nan,nan,1,3,nan,nan,1692,0.98234493,0.22821051,315.04321,285.26978,nan,346.491,-3.73435,2.4894,nan,nan
1980-02-18 07:07:45,-1,nan,nan,nan,nan,1,3,nan,nan,1692,0.9823578,0.22692525,314.84326,285.26514,nan,346.749,-6.37781,5.55081,nan,nan
1980-02-18 07:29:21,-1,nan,nan,nan,nan,1,3,nan,nan,1692,0.98237121,0.22557896,314.6394,285.2605,nan,344.158,-4.8326,6.10203,nan,nan
1980-02-18 07:50:57,-1,nan,nan,nan,nan,1,3,nan,nan,1692,0.98238403,0.22429383,314.4397,285.2561,nan,344.456,-7.46779,2.88281,nan,nan
1980-02-18 08:12:33,-1,nan,nan,nan,nan,1,3,nan,nan,1692,0.98239744,0.22294754,314.23584,285.25146,nan,342.404,-7.12688,8.66971,nan,nan
1980-02-18 09:05:53,1,4.17857,1.33571,2.16429,0.367215,1,1,64080.9,52551.7,1692,0.98242748,0.33372211,313.65738,285.16129,3.65343,380.347,-20.7458,11.5102,32.5254,29.4545
1980-02-18 09:06:33,1,4.8,1.3,2.3,0.0,1,1,58199.1,44389.5,1692,0.98242784,0.33368757,313.65329,285.1611,4.08606,346.898,-2.06014,6.10224,30.9967,27.0706
1980-02-18 09:06:47,1,4.44444,1.17778,2.24444,0.301846,1,1,55599.6,40106.5,1692,0.9824301,0.21964294,313.72803,285.23975,4.26366,343.517,0.868191,7.33321,30.2966,25.7315
1980-02-18 09:07:14,1,4.3,1.32308,2.06154,0.259266,1,1,55253.6,36290.1,1692,0.9824307,0.21958178,313.72388,285.2395,3.93279,342.208,-1.09688,5.71122,30.2022,24.4766
1980-02-18 09:08:31,1,4.40769,1.53077,2.17692,0.318651,1,1,61387.5,36774.0,1692,0.98243129,0.21952057,313.71191,285.23926,3.79456,345.383,-1.18854,5.62489,31.8345,24.6393
1980-02-18 09:09:12,1,4.36154,1.63846,2.14615,0.32271,1,1,61212.7,48688.2,1692,0.98243189,0.21945941,313.7041,285.23926,4.19769,344.861,-3.35226,5.1757,31.7891,28.3511
1980-02-18 09:11:54,1,3.95714,1.17857,1.82857,0.281124,1,1,69384.5,43346.8,1692,0.98243308,0.21933699,313.68018,285.23877,4.21657,346.904,-1.2989,6.62274,33.8446,26.7508
1980-02-18 09:12:34,1,3.76923,1.09231,1.73077,0.314351,1,1,73789.6,45701.5,1692,0.98243374,0.21927577,313.67603,285.23853,4.5058,347.969,3.34198,8.17805,34.9024,27.4677
1980-02-18 09:13:15,1,3.8,1.49231,1.96923,0.293116,1,1,66225.7,40504.1,1692,0.98243433,0.21921462,313.66797,285.23828,4.48199,349.627,-0.262066,6.58248,33.0652,25.8587
1980-02-18 09:16:37,-1,nan,nan,nan,nan,1,3,nan,nan,1692,0.98243612,0.21903104,313.63599,285.23755,nan,347.401,-6.77376,5.49646,nan,nan
1980-02-18 09:17:18,1,3.67692,1.94615,2.24615,0.329065,1,1,85811.7,45428.4,1692,0.98243672,0.21896982,313.62817,285.23755,4.85789,352.241,-5.17994,6.01034,37.6384,27.3856
1980-02-18 09:17:58,1,3.59231,1.98462,1.93846,0.271311,1,1,77106.6,37471.2,1692,0.98243672,0.21896982,313.62427,285.23755,4.32298,349.01,-6.4661,8.57305,35.6783,24.8718
1980-02-18 09:18:39,1,3.61538,1.76154,2.12308,0.284303,1,1,62889.8,47560.4,1692,0.98243731,0.21890861,313.61621,285.2373,4.58823,345.932,-4.98986,6.25102,32.2217,28.0208
1980-02-18 09:19:19,1,3.82308,1.76154,2.03077,0.232303,1,1,63711.3,38309.5,1692,0.98243791,0.21884745,313.61206,285.23706,4.36265,349.846,-3.99978,6.47037,32.4314,25.1484
1980-02-18 09:20:00,1,3.86923,1.74615,2.21538,0.318279,1,1,63434.1,43095.2,1692,0.9824385,0.2187863,313.604,285.23682,4.34537,349.283,-3.62475,5.97519,32.3608,26.673
1980-02-18 09:21:21,1,4.04615,-0.107692,1.87692,0.355681,1,1,78793.8,47679.9,1692,0.9824391,0.21872509,313.59204,285.23657,4.7722,344.912,11.1911,9.18226,36.0665,28.056
1980-02-18 09:22:01,1,4.13077,0.0384615,1.57692,0.332998,1,1,40823.1,43677.4,1692,0.9824397,0.21866393,313.58398,285.23633,3.86662,342.184,9.1533,10.4325,25.9604,26.8526
1980-02-18 09:22:42,1,4.36154,0.146154,1.65385,0.250443,1,1,83202.8,49687.2,1692,0.9824397,0.21866387,313.58008,285.23633,4.56798,344.936,8.06648,9.9854,37.0618,28.6405
1980-02-18 09:23:22,1,4.02308,0.0615385,1.26923,0.211503,1,1,51256.3,53298.1,1692,0.98244029,0.21860272,313.57202,285.23608,4.31477,344.356,8.75471,13.5319,29.0892,29.6629
1980-02-18 09:24:43,1,3.83077,0.261538,1.51538,0.623599,1,1,73187.4,42778.0,1692,0.98244095,0.2185415,313.56006,285.23584,4.66037,347.147,2.01261,6.0923,34.7597,26.5747
1980-02-18 09:25:24,1,3.84286,0.835714,1.70714,0.435539,1,1,85346.8,42718.7,1692,0.98244154,0.21848029,313.552,285.2356,4.88027,341.809,0.797915,8.32439,37.5363,26.5563
1980-02-18 09:26:04,1,4.18462,0.423077,1.31538,0.476923,1,1,72813.5,47225.5,1692,0.98244214,0.21841913,313.5481,285.2356,4.44225,348.0,2.9458,9.52944,34.6708,27.922
1980-02-18 09:27:24,-1,nan,nan,nan,nan,1,3,nan,nan,1692,0.98244274,0.21835792,313.53613,285.23535,nan,348.879,8.17787,13.6439,nan,nan
1980-02-18 09:28:05,1,4.04615,0.0846154,1.45385,0.269121,1,1,73424.9,54155.4,1692,0.98244333,0.21829677,313.52808,285.23511,4.64379,350.463,4.34143,11.5516,34.816,29.9005
1980-02-18 09:28:45,1,4.13846,0.215385,1.67692,0.300099,1,1,64740.1,44779.6,1692,0.98244333,0.21829671,313.52417,285.23511,4.57774,346.274,1.90653,8.924,32.6922,27.1893
1980-02-18 09:29:26,1,4.08571,0.45,1.72143,0.468715,1,1,65864.4,45601.3,1692,0.98244393,0.21823555,313.51611,285.23486,4.36005,345.994,0.481956,7.82897,32.9749,27.4376
1980-02-18 09:30:07,1,4.04615,0.323077,2.03846,0.396732,1,1,73680.4,43515.5,1692,0.98244452,0.21817434,313.50806,285.23462,4.43589,347.765,0.586655,7.28162,34.8766,26.8028
1980-02-18 09:30:48,1,4.11538,0.353846,1.83077,0.440011,1,1,73291.0,41664.4,1692,0.98244452,0.21817434,313.50415,285.23462,4.34486,346.593,2.74048,8.01113,34.7843,26.2265
1980-02-18 09:32:09,1,3.69167,1.34167,1.68333,0.480885,1,1,72671.0,49747.3,1692,0.98244572,0.21805197,313.49194,285.23413,4.51295,347.776,-9.06004,8.8901,34.6369,28.6578
1980-02-18 09:32:49,-1,nan,nan,nan,nan,1,3,nan,nan,1692,0.98244572,0.21805191,313.48413,285.23413,nan,351.262,6.02554,13.1794,nan,nan
1980-02-18 09:33:30,1,3.89231,0.769231,1.4,0.541857,1,1,56195.6,57510.7,1692,0.98244631,0.21799076,313.47607,285.23389,4.65427,347.682,1.95487,15.5179,30.4585,30.8129
1980-02-18 09:34:10,1,3.84615,0.907692,1.54615,0.279264,1,1,78502.0,50891.2,1692,0.98244691,0.2179296,313.47217,285.23389,4.69791,350.102,-1.29076,10.5997,35.9997,28.9854
1980-02-18 09:34:51,1,3.70769,1.2,1.60769,0.311135,1,1,79123.0,49285.6,1692,0.98244691,0.21792954,313.46436,285.23389,4.60868,350.676,-1.31615,9.754,36.1417,28.5245
1980-02-18 09:36:12,1,3.91538,1.1,1.76154,0.278415,1,1,77076.0,50278.9,1692,0.98244816,0.21780723,313.45215,285.2334,4.86467,349.422,-0.211796,9.61992,35.6712,28.8105
1980-02-18 09:36:52,1,4.0,1.0,1.84615,0.194602,1,1,83165.6,48335.5,1692,0.98244816,0.21780717,313.44824,285.2334,4.97223,354.802,0.346518,8.84236,37.0535,28.2482
1980-02-18 09:38:30,-1,nan,nan,nan,nan,1,4,nan,nan,1692,0.98244935,0.21768481,313.43213,285.23291,nan,nan,nan,nan,nan,nan
1980-02-18 09:39:51,1,3.79231,1.12308,2.26154,0.392534,1,1,75363.1,48168.3,1692,0.98244995,0.21762359,313.42017,285.23267,4.95406,350.342,-1.56718,8.74505,35.2726,28.1993
1980-02-18 09:40:32,1,3.99231,0.492308,2.36923,0.490381,1,1,73902.3,43314.6,1692,0.98245054,0.21756244,313.41211,285.23242,4.53588,347.538,1.27155,5.90845,34.9291,26.7408
1980-02-18 09:40:55,1,3.83846,0.807692,2.40769,0.349641,1,1,65059.4,45317.3,1692,0.98245054,0.21756238,313.4082,285.23242,4.65213,346.802,2.62423,6.35437,32.7727,27.352
1980-02-18 09:41:36,1,3.825,0.4,2.35833,1.6174,1,1,66430.5,42772.2,1692,0.98245114,0.21750122,313.40405,285.23218,4.3994,345.855,1.96299,7.66748,33.1163,26.5729
1980-02-18 09:42:16,1,4.01538,0.646154,2.16923,0.500532,1,1,59862.6,42653.5,1692,0.98245174,0.21744007,313.396,285.23193,4.18862,344.051,1.50297,8.03479,31.4366,26.536
1980-02-18 09:42:57,1,4.03077,0.930769,2.1,0.33916,1,1,70100.5,43452.8,1692,0.98245174,0.21744001,313.38818,285.23193,4.13944,345.135,0.263762,9.60727,34.0188,26.7835
1980-02-18 09:44:18,1,3.82308,0.992308,1.86154,0.342286,1,1,65898.3,48365.0,1692,0.98245293,0.21731764,313.37622,285.23169,4.55028,346.351,-1.44494,12.0288,32.9834,28.2568
1980-02-18 09:44:58,1,3.72308,1.30769,1.9,0.358663,1,1,71234.5,44871.1,1692,0.98245293,0.21731764,313.37231,285.23169,4.57521,345.654,-0.295279,9.42481,34.2928,27.2171
1980-02-18 09:45:39,1,3.96923,0.946154,2.01538,0.367625,1,1,71934.3,50566.7,1692,0.98245353,0.21725643,313.36426,285.23145,4.6857,347.355,-0.404334,11.53,34.4608,28.8928
1980-02-18 09:46:19,1,3.95385,0.8,2.41538,0.370989,1,1,70440.5,41169.2,1692,0.98245412,0.21719527,313.3562,285.2312,4.26822,347.691,2.21267,7.33352,34.1011,26.0702
1980-02-18 09:47:00,1,3.97692,0.346154,2.54615,0.412095,1,1,71803.6,41294.4,1692,0.98245472,0.21713412,313.35205,285.23096,4.30838,346.781,3.11573,4.71259,34.4295,26.1098
1980-02-18 09:47:40,1,4.26667,0.591667,2.475,0.443315,1,1,71511.0,41324.3,1692,0.98245472,0.21713406,313.34424,285.23096,4.41381,347.134,1.66166,6.02724,34.3593,26.1192
1980-02-18 09:48:21,1,3.93846,0.892308,2.63077,0.379036,1,1,71801.1,42346.2,1692,0.98245537,0.2170729,313.34009,285.23071,4.6832,348.624,2.81031,5.76588,34.4289,26.4402
1980-02-18 09:49:01,1,4.03846,0.723077,2.53077,0.457547,1,1,73435.5,38320.3,1692,0.98245597,0.21701175,313.33203,285.23047,4.61256,348.83,0.707085,5.34125,34.8186,25.152
1980-02-18 09:50:22,1,3.86154,0.146154,3.3,0.299111,1,1,58890.2,37626.9,1692,0.98245656,0.21695054,313.32007,285.23022,4.39692,345.365,5.24645,0.381601,31.1802,24.9234
1980-02-18 09:51:03,1,3.9,0.315385,3.02308,0.464095,1,1,85896.8,43947.7,1692,0.98245716,0.21688932,313.31226,285.23022,4.75177,346.494,3.04507,2.42733,37.6571,26.9356
1980-02-18 09:51:43,1,3.70769,0.461538,3.02308,0.477419,1,1,60030.6,36695.3,1692,0.98245716,0.21688932,313.30835,285.23022,4.13351,343.515,1.87531,3.39745,31.4807,24.6129
1980-02-18 09:52:24,1,3.92308,0.4,2.47692,0.495064,1,1,80148.9,43185.6,1692,0.98245776,0.21682811,313.30029,285.22998,4.55148,348.957,3.68533,5.50505,36.3753,26.701
1980-02-18 09:53:04,1,3.57143,0.742857,3.24286,0.352252,1,1,64170.2,37653.0,1692,0.98245835,0.21676695,313.29614,285.22974,4.05565,345.395,0.397465,2.70393,32.548,24.932
1980-02-18 09:53:45,1,4.12308,0.946154,2.74615,0.336005,1,1,67988.2,42002.9,1692,0.98245835,0.21676689,313.28833,285.22974,4.13893,344.428,0.393588,2.57554,33.5023,26.3328
1980-02-18 09:54:25,1,3.94167,0.708333,2.39167,0.42106,1,1,66191.6,34024.5,1692,0.98245895,0.21670574,313.28418,285.22949,4.08614,343.534,-0.654162,4.37711,33.0567,23.7003
1980-02-18 09:55:06,1,4.06923,0.407692,2.17692,0.47231,1,1,70915.2,41873.4,1692,0.98245955,0.21664459,313.27612,285.22925,4.21256,342.483,0.512681,6.13346,34.2159,26.2922
1980-02-18 09:55:46,1,3.91538,0.384615,2.36923,0.431593,1,1,63157.9,37227.3,1692,0.98245955,0.21664453,313.26831,285.22925,4.21342,344.085,-0.625208,5.56937,32.2903,24.7907
1980-02-18 09:56:27,1,3.92308,0.4,2.38462,0.486747,1,1,67640.9,42049.0,1692,0.98246014,0.21658337,313.26416,285.229,4.30308,341.261,1.29078,7.03012,33.4166,26.3473
1980-02-18 09:57:07,1,4.13077,0.230769,2.4,0.343666,1,1,49406.7,42565.0,1692,0.98246074,0.21652216,313.2561,285.22876,4.2082,342.536,-0.365343,5.78958,28.5595,26.5085
1980-02-18 09:59:09,1,3.90769,0.315385,2.5,0.351497,1,1,66130.2,44916.4,1692,0.98246193,0.21639979,313.23608,285.22827,4.07369,338.929,0.139347,6.38765,33.0413,27.2308
1980-02-18 09:59:49,1,3.63333,0.45,2.16667,0.467559,1,1,62475.1,47120.5,1692,0.98246193,0.21639973,313.23218,285.22827,4.54552,345.959,1.54753,6.88763,32.1153,27.8909
1980-02-18 10:01:10,1,3.88462,0.707692,2.12308,0.426906,1,1,48695.5,36740.1,1692,0.98246318,0.21627742,313.22021,285.22803,3.69309,342.135,0.551007,7.16948,28.3532,24.6279
1980-02-18 10:01:51,1,3.74615,0.3,2.62308,0.841948,1,1,71847.9,44538.4,1692,0.98246318,0.21627736,313.2124,285.22803,4.36492,341.119,2.81318,5.3103,34.4401,27.116
1980-02-18 10:02:31,1,3.63077,0.692308,3.39231,0.496616,1,1,65960.0,38497.3,1692,0.98246378,0.21621621,313.20825,285.22778,4.38072,342.612,-0.555855,-0.770798,32.9988,25.21
1980-02-18 10:03:12,1,3.32143,1.11429,3.92143,0.227453,1,1,82895.4,47555.1,1692,0.98246437,0.21615505,313.2002,285.22754,4.37986,341.252,0.0820097,2.10089,36.9933,28.0192
1980-02-18 10:03:52,1,3.19167,0.8,3.93333,0.341056,1,1,71093.6,45401.8,1692,0.98246437,0.21615499,313.19238,285.22754,4.64875,343.429,1.0043,1.22609,34.2589,27.3775
1980-02-18 10:04:33,1,3.16923,0.792308,3.85385,0.331573,1,1,85112.5,45840.6,1692,0.98246497,0.21609384,313.18823,285.22729,4.4962,340.96,-1.63375,0.541872,37.4848,27.5095
1980-02-18 10:05:13,1,3.51667,0.65,1.89167,0.795604,1,1,92108.8,49710.0,1692,0.98246557,0.21603268,313.18018,285.22705,4.80652,341.563,1.64061,4.56685,38.995,28.647
1980-02-18 10:05:54,1,3.47143,1.30714,2.66429,0.369362,1,1,74630.3,42998.7,1692,0.98246557,0.21603262,313.17627,285.22705,4.448,341.013,-4.11713,0.95447,35.1007,26.6432
1980-02-18 10:06:34,1,3.65833,0.883333,2.38333,0.339424,1,1,81087.8,44090.2,1692,0.98246616,0.21597147,313.16821,285.22681,4.60977,341.437,-3.70656,4.83544,36.5877,26.9792
1980-02-18 10:07:15,1,3.87692,0.307692,2.62308,0.484799,1,1,61810.9,49298.4,1692,0.98246676,0.21591026,313.16016,285.22656,4.60785,340.393,-0.966208,5.79616,31.9441,28.5282
1980-02-18 10:07:55,1,4.05833,0.191667,2.58333,0.315568,1,1,83446.0,48505.5,1692,0.98246676,0.21591026,313.15625,285.22656,4.35831,338.825,0.741641,4.21039,37.116,28.2979
1980-02-18 10:08:36,1,3.90769,0.0615385,2.9,0.301279,1,1,76238.2,42439.1,1692,0.98246735,0.21584904,313.14844,285.22656,4.4922,340.645,0.120219,1.63184,35.4768,26.4692
1980-02-18 10:09:16,1,3.76667,0.3,2.76667,0.463081,1,1,70518.1,47251.7,1692,0.98246795,0.21578789,313.14429,285.22632,4.48222,340.181,0.463777,2.69883,34.1199,27.9297
1980-02-18 10:10:37,1,3.52,1.12,2.88,0.415692,1,1,112518.0,50959.7,1692,0.98246855,0.21572667,313.13232,285.22607,4.90154,344.854,-4.00285,-0.135792,43.0992,29.0049
1980-02-18 10:11:18,1,3.6,0.569231,2.93077,0.503479,1,1,51177.5,40267.1,1692,0.98246914,0.21566552,313.12427,285.22583,3.41743,349.15,1.48548,4.44206,29.0668,25.783
1980-02-18 10:11:58,1,3.44167,1.15833,2.96667,0.300694,1,1,90403.2,46234.7,1692,0.98246914,0.21566546,313.11646,285.22583,4.75515,343.431,-5.38739,4.33816,38.6322,27.6275
1980-02-18 10:12:39,1,3.48333,-0.308333,3.00833,0.312916,1,1,77269.8,51110.4,1692,0.98246974,0.21560431,313.1123,285.22559,4.94094,340.397,4.68275,4.76942,35.716,29.0478
1980-02-18 10:13:19,1,3.31538,-0.130769,2.99231,0.290072,1,1,76128.7,50345.6,1692,0.98247033,0.21554315,313.10425,285.22534,4.60964,342.278,2.04519,2.6628,35.4513,28.8296
1980-02-18 10:14:40,1,3.9,0.0583333,2.66667,0.267057,1,1,77438.9,51911.4,1692,0.98247093,0.21548194,313.09229,285.2251,4.7983,344.567,0.232436,5.87545,35.755,29.2745
1980-02-18 10:15:21,1,3.89231,0.0230769,2.71538,0.292105,1,1,67838.2,42653.6,1692,0.98247153,0.21542078,313.08447,285.2251,4.31354,337.399,-0.797645,4.83439,33.4653,26.536
1980-02-18 10:51:33,-1,nan,nan,nan,nan,1,3,nan,nan,1692,0.98249298,0.21321797,312.74854,285.21729,nan,335.823,4.05087,4.44031,nan,nan
1980-02-18 10:52:14,1,3.56923,1.71538,3.16923,0.261991,1,1,75642.8,50393.3,1692,0.98249358,0.21315682,312.74048,285.21704,4.26597,341.766,-1.5829,6.02263,35.338,28.8432
1980-02-18 10:52:54,1,3.29231,1.82308,2.83846,0.359816,1,1,67946.7,36845.9,1692,0.98249358,0.21315676,312.73657,285.21704,4.4499,342.915,-5.96956,6.98337,33.4921,24.6634
1980-02-18 10:53:35,1,2.4,-1.60909,4.75455,0.288627,1,1,84428.0,41838.4,1692,0.98249418,0.21309561,312.72876,285.21704,5.00369,349.731,6.08121,0.711927,37.3337,26.2812
1980-02-18 10:54:16,1,2.45833,-1.38333,4.875,0.319939,1,1,102213.0,42005.5,1692,0.98249477,0.21303445,312.7207,285.2168,5.19937,344.427,0.587465,3.72014,41.0781,26.3336
1980-02-18 10:54:57,1,2.36667,-1.44167,4.975,0.219532,1,1,111163.0,46192.2,1692,0.98249477,0.21303439,312.7168,285.2168,5.60115,347.676,4.81034,0.898337,42.8388,27.6148
1980-02-18 10:55:37,1,2.56154,-1.35385,5.06923,0.194297,1,1,106306.0,43035.5,1692,0.98249537,0.21297324,312.70874,285.21655,5.42426,348.936,3.93691,0.614962,41.8926,26.6545
1980-02-18 10:56:58,1,1.96,-2.1,4.96,0.291204,1,1,106882.0,45216.8,1692,0.98249596,0.21291202,312.69678,285.21631,5.14727,347.916,4.60394,0.247,42.0059,27.3217
1980-02-18 10:57:39,1,2.92308,-1.03846,4.59231,0.733961,1,1,88214.7,42540.0,1692,0.98249656,0.21285087,312.68872,285.21606,4.90238,348.053,6.19254,2.31023,38.1618,26.5006
1980-02-18 10:58:19,1,2.47692,-1.46923,4.8,0.636745,1,1,94003.7,41844.4,1692,0.98249716,0.21278965,312.68457,285.21582,5.16802,348.493,3.52282,3.06212,39.394,26.2831
1980-02-18 10:59:00,1,2.38462,-1.61538,4.84615,0.340379,1,1,105426.0,52656.1,1692,0.98249775,0.2127285,312.67651,285.21558,5.49712,348.884,6.11074,1.5843,41.7188,29.4837
1980-02-18 10:59:40,1,2.17857,-1.30714,5.19286,0.338288,1,1,102221.0,40165.4,1692,0.98249775,0.21272844,312.67261,285.21558,5.06629,348.103,3.28897,-0.594299,41.0797,25.7504
1980-02-18 11:00:21,1,2.28462,-1.52308,5.10769,0.373057,1,1,97448.5,45955.1,1692,0.98249835,0.21266729,312.66479,285.21558,5.01824,348.667,6.28569,2.7105,40.1093,27.5439
1980-02-18 11:01:01,-1,nan,nan,nan,nan,1,4,nan,nan,1692,0.98249888,0.21260613,312.66064,285.21533,nan,nan,nan,nan,nan,nan
1980-02-18 11:01:42,1,1.88462,-1.19231,5.37692,0.373057,1,1,96393.1,48236.4,1692,0.98249888,0.21260607,312.65283,285.21533,4.85845,350.425,5.18632,6.16364,39.8915,28.2193
1980-02-18 11:02:22,1,1.44167,-1.54167,5.63333,0.322102,1,1,91342.8,46102.9,1692,0.98249948,0.21254492,312.64478,285.21509,4.95491,346.738,2.83422,4.22042,38.8325,27.5881
1980-02-18 11:03:03,1,2.08571,-1.95,5.15,0.367146,1,1,82867.8,45087.7,1692,0.98250008,0.21248376,312.64063,285.21484,5.02579,347.087,5.8695,1.03234,36.9871,27.2827
1980-02-18 11:03:43,1,1.63846,-1.58462,5.38462,0.344698,1,1,100823.0,44790.1,1692,0.98250008,0.2124837,312.63281,285.21484,4.73411,350.851,2.58136,1.86532,40.7979,27.1925
1980-02-18 11:04:24,1,1.53846,-1.57692,5.56923,0.306536,1,1,86811.7,43004.8,1692,0.98250067,0.21242255,312.62866,285.2146,4.91966,348.992,5.03142,1.67248,37.8571,26.645
1980-02-18 11:05:04,1,1.60833,-1.325,5.525,0.455903,1,1,101968.0,50679.5,1692,0.98250127,0.2123614,312.62061,285.21436,5.41217,349.554,5.04643,3.40597,41.0288,28.925
1980-02-18 11:05:45,1,1.57692,-1.7,5.16923,0.327081,1,1,107946.0,43277.9,1692,0.98250127,0.21236134,312.61279,285.21436,5.27264,353.353,7.82062,0.73832,42.2144,26.7295
1980-02-18 11:06:25,1,1.26154,-1.54615,5.6,0.188736,1,1,100338.0,48463.6,1692,0.98250186,0.21230018,312.60864,285.21411,5.36508,352.7,4.54399,0.133209,40.6996,28.2856
1980-02-18 11:07:46,1,3.52,0.78,2.9,0.176635,1,1,67760.1,53591.4,1692,0.98250246,0.21223897,312.59668,285.21387,5.23184,347.809,0.0972097,8.76642,33.446,29.7444
1980-02-18 11:08:27,1,3.53846,0.992308,2.46923,0.275638,1,1,77414.0,49801.0,1692,0.98250306,0.21217781,312.58862,285.21362,4.97719,347.389,3.0445,5.58685,35.7493,28.6732
1980-02-18 11:09:07,1,3.43846,1.14615,1.69231,0.305376,1,1,76431.9,44603.9,1692,0.98250365,0.21211666,312.58472,285.21362,5.25359,348.704,2.48546,4.62799,35.5218,27.1359
1980-02-18 11:09:48,1,3.64615,1.44615,1.64615,0.28782,1,1,40744.6,44010.7,1692,0.98250365,0.2121166,312.5769,285.21362,4.13608,338.214,-3.58378,8.2332,25.9354,26.9549
1980-02-18 11:10:28,1,3.33077,1.57692,1.7,0.273266,1,1,83011.1,46707.6,1692,0.98250425,0.21205544,312.56885,285.21338,5.03618,345.946,-2.40567,8.05078,37.0191,27.7685
1980-02-18 11:11:09,1,3.38571,1.67857,1.65714,0.294594,1,1,67120.1,46008.5,1692,0.98250484,0.21199429,312.5647,285.21313,4.71271,342.469,-4.11766,6.65092,33.2877,27.5599
1980-02-18 11:11:49,1,3.56154,1.01538,2.12308,0.310182,1,1,67615.8,45233.5,1692,0.98250484,0.21199423,312.55688,285.21313,4.64498,345.058,-0.323568,4.89548,33.4104,27.3267
1980-02-18 11:12:30,1,3.69231,1.10769,2.00769,0.331395,1,1,57151.6,44200.7,1692,0.98250544,0.21193308,312.55273,285.21289,4.54503,344.768,2.45672,6.15874,30.7165,27.013
1980-02-18 11:13:10,1,3.53846,0.969231,2.00769,0.342804,1,1,61782.6,47718.1,1692,0.98250598,0.21187192,312.54468,285.21265,4.86753,343.922,2.16395,8.54432,31.9368,28.0672
1980-02-18 11:13:51,1,3.5,1.08462,2.46923,0.294124,1,1,49491.6,45110.0,1692,0.98250598,0.21187186,312.53687,285.21265,4.54388,343.726,1.97052,6.46714,28.584,27.2894
1980-02-18 11:14:31,1,3.74615,1.28462,2.06154,0.353009,1,1,69174.0,43456.1,1692,0.98250657,0.21181071,312.53271,285.2124,4.61803,344.044,-1.13381,7.19146,33.7932,26.7845
1980-02-18 11:15:52,1,3.75,1.35833,2.3,0.294274,1,1,61333.4,43451.3,1692,0.98250717,0.21174949,312.52075,285.21216,4.56103,343.217,-1.52913,5.65597,31.8205,26.783
1980-02-18 11:16:33,1,3.62308,1.26154,2.19231,0.272182,1,1,56919.7,40098.8,1692,0.98250777,0.21168834,312.5127,285.21191,4.46176,345.188,3.47897,4.63335,30.6542,25.729
1980-02-18 11:18:34,1,3.3,1.5,1.3,0.0,1,1,60823.7,44029.7,1692,0.98250896,0.21156597,312.49292,285.21167,4.67003,343.607,-2.83785,11.8927,31.688,26.9607
1980-02-18 11:19:15,1,3.63846,1.67692,1.69231,0.229226,1,1,63678.4,48825.9,1692,0.98250955,0.21150482,312.48877,285.21143,4.70785,343.351,-2.45612,8.4308,32.4231,28.3911
1980-02-18 11:19:55,1,3.94615,1.46923,1.84615,0.305376,1,1,67813.8,45447.0,1692,0.98250955,0.21150476,312.48096,285.21143,4.96921,345.45,-2.18997,9.07693,33.4593,27.3912
1980-02-18 11:20:36,1,4.00769,1.43846,1.72308,0.304211,1,1,45672.5,45657.0,1692,0.98251015,0.2114436,312.47681,285.21118,4.40649,341.635,-1.74281,9.67354,27.459,27.4544
1980-02-18 11:21:16,1,3.98333,1.29167,1.53333,0.296156,1,1,63997.3,43657.3,1692,0.98251075,0.21138239,312.46875,285.21094,4.63876,345.606,-0.565873,9.01005,32.5041,26.8464
1980-02-18 11:21:57,1,4.00769,1.23846,1.66923,0.345041,1,1,47551.0,42842.8,1692,0.98251075,0.21138239,312.46484,285.21094,4.40744,341.063,-0.361367,8.20482,28.018,26.5948
1980-02-18 11:23:18,1,3.775,2.13333,1.45833,0.391401,1,1,44119.8,43243.2,1692,0.98251194,0.21126002,312.44873,285.21045,4.17895,341.034,0.250575,7.90102,26.9883,26.7188
1980-02-18 11:23:58,1,3.86923,1.89231,1.75385,0.3075,1,1,53246.0,42750.9,1692,0.98251194,0.21126002,312.44482,285.21045,4.25782,341.405,-3.13633,8.18007,29.6484,26.5663
1980-02-18 11:24:39,1,3.72143,1.8,1.51429,0.314042,1,1,39109.2,40719.9,1692,0.98251253,0.21119887,312.43677,285.21021,4.55172,342.531,-4.49756,10.5786,25.4096,25.9275